Regional Weather Roundup
Issued by NWS

Home | Current Version | Previous Version | Graphics & Text | Print | Product List | Glossary On
Versions: 1 2 3 4 5 6 7 8 9 10 11 12 13 14 15 16 17 18 19 20 21 22 23 24 25 26 27 28 29 30 31 32 33 34 35 36 37 38 39 40 41 42 43 44 45 46 47 48 49 50
995
ASUS45 KABQ 211801
RWRNM
NEW MEXICO REGIONAL WEATHER ROUNDUP
NATIONAL WEATHER SERVICE ALBUQUERQUE NM
1200 PM MDT SAT APR 21 2018

NOTE: "FAIR" MEANS FEW OR NO CLOUDS BELOW 12,000 FEET AGL WITH NO
       SIGNIFICANT WEATHER OR OBSTRUCTIONS TO VISION.

      THIS PRODUCT IS RELEASED AS TWO VERSIONS.  ONE VERSION NEAR
      THE TOP OF THE HOUR CONTAINING PRELIMINARY DATA FROM ALBUQUERQUE
      AND OTHER STATIONS.  A FINAL VERSION WITH ADDITIONAL DATA IS
      ISSUED ABOUT 10 MINUTES AFTER THE HOUR.

NMZ501-503-504-510>518-211900-
NORTHWEST PLATEAU/NORTHCENTRAL MOUNTAINS

CITY           SKY/WX    TMP DP  RH WIND       PRES   REMARKS
FARMINGTON     FAIR      58  29  33 W9        30.10R
6HR MIN TEMP:  42; 6HR MAX TEMP:  58;

LOS ALAMOS     FAIR      48  20  33 NE20G31   30.14F
SANTA FE       FAIR      54  24  31 N12G28    30.11F
6HR MIN TEMP:  31; 6HR MAX TEMP:  54;

TAOS           FAIR      49  23  36 NW12G18   30.15F
ANGEL FIRE     CLOUDY    40  22  48 W10       30.13F WCI  34

$$
NMZ402-403-502-505>509-211900-
WESTCENTRAL MOUNTAINS/SOUTHWEST MOUNTAINS

CITY           SKY/WX    TMP DP  RH WIND       PRES   REMARKS
GALLUP         PTSUNNY   53  35  50 S5        30.18S
6HR MIN TEMP:  33; 6HR MAX TEMP:  53;

GRANTS         PTSUNNY   55  28  34 N21G31    30.17F
SILVER CITY    FAIR      62  23  22 NW5       30.14F

$$
NMZ407-409-411-412-211900-
SOUTHERN DESERTS

CITY           SKY/WX    TMP DP  RH WIND       PRES   REMARKS
DEMING         FAIR      65  24  21 S6        30.13F
6HR MIN TEMP:  44; 6HR MAX TEMP:  65;

LAS CRUCES     FAIR      65  18  17 CALM      30.14F
HOLLOMAN AFB   FAIR      66  25  21 NW17      30.14F
ALAMOGORDO     FAIR      63  23  22 NW8G23    30.13S
T OR C         FAIR      64  26  23 N7        30.12F
6HR MIN TEMP:  45; 6HR MAX TEMP:  65;


$$
NMZ519>523-211900-
CENTRAL VALLEYS/CENTRAL HIGHLANDS

CITY           SKY/WX    TMP DP  RH WIND       PRES   REMARKS
ALBUQUERQUE    FAIR      51  30  44 W8        30.16F
6HR MIN TEMP:  35; 6HR MAX TEMP:  51;

DOUBLE EAGLE   PTSUNNY   52  30  43 NW10G18   30.17S
MORIARTY ARPT  FAIR      55  27  34 NW14G21   30.14S
6HR MIN TEMP:  36; 6HR MAX TEMP:  55;

CLINES CORNERS FAIR      51  24  34 NW13      30.13S
6HR MIN TEMP:  24; 6HR MAX TEMP:  51;

BELEN          CLOUDY    54  29  38 NW7       30.17S
6HR MIN TEMP:  37; 6HR MAX TEMP:  54;

SOCORRO        CLOUDY    57  28  31 N14       30.15S
6HR MIN TEMP:  43; 6HR MAX TEMP:  61;


$$
NMZ524>526-539-540-211900-
SOUTHCENTRAL MOUNTAINS

CITY           SKY/WX    TMP DP  RH WIND       PRES   REMARKS
RUIDOSO        FAIR      50  23  34 N20G29    30.15S

$$
NMZ527>531-211900-
NORTHEAST HIGHLANDS/NORTHEAST PLAINS

CITY           SKY/WX    TMP DP  RH WIND       PRES   REMARKS
LAS VEGAS      FAIR      50  24  36 NE14G22   30.11R
6HR MIN TEMP:  29; 6HR MAX TEMP:  51;

RATON          PTSUNNY   48  29  47 N13G22    30.11F
6HR MIN TEMP:  34; 6HR MAX TEMP:  48;

CLAYTON        CLOUDY    46  42  86 N15       30.10S
6HR MIN TEMP:  38; 6HR MAX TEMP:  48; 6HR PCP:  0.01;


$$
NMZ532>537-211900-
EASTCENTRAL PLAINS

CITY           SKY/WX    TMP DP  RH WIND       PRES   REMARKS
SANTA ROSA     FAIR      56  31  37 N8G22     30.08S
TUCUMCARI      PTSUNNY   57  39  51 NE14G22   30.07R
6HR MIN TEMP:  45; 6HR MAX TEMP:  58;

CANNON AFB     CLOUDY    52  46  82 N18       30.09R
6HR MIN TEMP:  45; 6HR MAX TEMP:  52; 6HR PCP: TRACE;

CLOVIS AIRPORT CLOUDY    46  41  82 N22       30.10R

$$
NMZ028-029-538-211900-
SOUTHEAST PLAINS

CITY           SKY/WX    TMP DP  RH WIND       PRES   REMARKS
ROSWELL        FAIR      68  25  19 NW18G30   30.02F
6HR MIN TEMP:  44; 6HR MAX TEMP:  69;

ARTESIA        FAIR      68  23  18 N17G24    30.03F
CARLSBAD       FAIR      69  26  20 NW12G17   30.02F
6HR MIN TEMP:  47; 6HR MAX TEMP:  70;

HOBBS          SUNNY     66  36  32 NW22G29   30.01F


$$




USA.gov is the U.S. government's official web portal to all federal, state and local government web resources and services.